This demonstration page uses our WeatherBlox Daily Observations layout. Learn more.

Left ArrowRight Arrow

39.01783, -85.05884

Hourly Observations for December 8, 2020

Temp ( °F °C ) Dew Point ( °F °C ) Humidity (%) Winds ( mph kmh ) Pressure ( in mb ) Visibility ( mi km ) Precip ( " mm )
1:52 am 01:52 Cloudy 30 -1.1 21 -6.1 69 69 W 7 11 30.11 1020 10 16 N/A
2:52 am 02:52 Cloudy 30 -1.1 21 -6.1 69 69 W 6 9 30.11 1020 10 16 N/A
3:52 am 03:52 Cloudy 30 -1.1 20 -6.7 66 66 WNW 3 6 30.11 1020 10 16 N/A
4:18 am 04:18 Cloudy 30 -1.1 20 -6.7 66 66 NW 5 7 30.14 1021 10 16 N/A
4:52 am 04:52 Cloudy 30 -1.1 18 -7.8 61 61 NW 5 7 30.12 1020 10 16 N/A
5:52 am 05:52 Cloudy 30 -1.1 18 -7.8 61 61 WNW 7 11 30.12 1020 10 16 N/A
6:40 am 06:40 Cloudy 30 -1.1 20 -6.7 66 66 SSW 3 6 30.16 1021 10 16 N/A
6:52 am 06:52 Cloudy 30 -1.1 20 -6.7 66 66 N N/A 30.13 1020 10 16 N/A
7:52 am 07:52 Cloudy 30 -1.1 20 -6.7 66 66 SSW 3 6 30.14 1021 10 16 N/A
8:52 am 08:52 Cloudy 31 -0.6 21 -6.1 67 67 N N/A 30.17 1022 10 16 N/A
9:52 am 09:52 Cloudy 32 undefined 21 -6.1 64 64 N N/A 30.19 1022 10 16 N/A
10:52 am 10:52 Cloudy 33 0.6 22 -5.6 64 64 VRB 3 6 30.16 1022 10 16 N/A
11:52 am 11:52 Cloudy 34 1.1 22 -5.6 61 61 W 10 17 30.17 1022 10 16 N/A
12:52 pm 12:52 Cloudy 35 1.7 22 -5.6 59 59 WNW 8 13 30.15 1021 10 16 N/A
1:52 pm 13:52 Cloudy 35 1.7 22 -5.6 59 59 W 7 11 30.10 1019 10 16 N/A
2:52 pm 14:52 Cloudy 35 1.7 22 -5.6 59 59 WSW 7 11 30.11 1020 10 16 N/A
3:52 pm 15:52 Cloudy 35 1.7 23 -5 61 61 WSW 6 9 30.11 1020 10 16 N/A
4:52 pm 16:52 Cloudy 34 1.1 23 -5 64 64 W 7 11 30.12 1020 10 16 N/A
5:52 pm 17:52 Cloudy 34 1.1 23 -5 64 64 WSW 7 11 30.12 1020 10 16 N/A
6:46 pm 18:46 Cloudy 34 1 23 -5 65 65 S 7 11 30.09 1019 10 16 N/A
6:52 pm 18:52 Cloudy 33 0.6 23 -5 66 66 SSW 7 11 30.07 1018 10 16 N/A
7:52 pm 19:52 Cloudy 32 undefined 24 -4.4 73 73 S 7 11 30.04 1017 10 16 N/A
8:52 pm 20:52 Cloudy 33 0.6 24 -4.4 70 70 S 9 15 30.07 1018 10 16 N/A
9:52 pm 21:52 Cloudy 31 -0.6 23 -5 72 72 SSW 7 11 30.06 1018 10 16 N/A
10:52 pm 22:52 Mostly Cloudy 31 -0.6 24 -4.4 76 76 SSW 8 13 30.06 1018 10 16 N/A
11:52 pm 23:52 Cloudy 31 -0.6 24 -4.4 76 76 SSW 7 11 30.04 1017 10 16 N/A

Powered by AerisWeather